EW3206 Weather Reports


Display with metric or nautical units.
time (UTC)temp
F
wind
direction
speed
MPH
gust
MPH
rain 1hr
in
rain 24hr
in
rain mn
in
humidity
%
barometer
mb
20260508055309 50 132 0.0 6.0 0.00 0.00 0.00 79 16.2
20260508054309 50 127 2.0 9.0 0.00 0.00 0.00 80 16.1
20260508053309 49 119 2.0 8.0 0.00 0.00 0.00 80 16.1
20260508052309 49 132 2.0 8.0 0.00 0.00 0.00 80 16.0
20260508051309 49 114 2.0 9.0 0.00 0.00 0.00 80 15.9
20260508045309 49 121 1.0 8.0 0.00 0.00 0.00 80 15.8
20260508044309 49 115 2.0 7.0 0.00 0.00 0.00 80 15.7
20260508043309 49 150 0.0 8.0 0.00 0.00 0.00 80 15.8
20260508042309 49 117 1.0 7.0 0.00 0.00 0.00 80 15.8
20260508035309 49 117 3.0 8.0 0.00 0.00 0.00 79 15.8
20260508034309 50 127 0.0 7.0 0.00 0.00 0.00 79 15.9
20260508033310 50 108 4.0 11.0 0.00 0.00 0.00 79 15.8
20260508031309 50 128 0.0 7.0 0.00 0.00 0.00 78 15.6
20260508025309 50 121 0.0 4.0 0.00 0.00 0.00 78 15.6
20260508024310 50 159 1.0 9.0 0.00 0.00 0.00 77 15.7
20260508023309 50 116 1.0 6.0 0.00 0.00 0.00 77 15.5
20260508022309 50 148 3.0 8.0 0.00 0.00 0.00 77 15.6
20260508021309 50 116 0.0 7.0 0.00 0.00 0.00 77 15.4
20260508014310 51 111 1.0 9.0 0.00 0.00 0.00 76 15.5
20260508013311 51 127 2.0 10.0 0.00 0.00 0.00 75 15.5
20260508011311 51 117 2.0 8.0 0.00 0.00 0.00 75 15.5
20260508005309 51 139 0.0 8.0 0.00 0.00 0.00 74 15.5
20260508004309 51 139 0.0 6.0 0.00 0.00 0.00 74 15.4
20260508003310 51 135 0.0 3.0 0.00 0.00 0.00 74 15.5
20260508002309 52 116 0.0 4.0 0.00 0.00 0.00 74 15.4
20260508001310 52 130 1.0 8.0 0.00 0.00 0.00 74 15.5
20260507235309 51 119 2.0 9.0 0.00 0.00 0.00 74 15.5
20260507234309 51 119 0.0 3.0 0.00 0.00 0.00 74 15.5
20260507232309 52 109 0.0 2.0 0.00 0.00 0.00 74 15.6
20260507231309 52 117 0.0 2.0 0.00 0.00 0.00 74 15.6
20260507225309 52 86 0.0 2.0 0.00 0.00 0.00 73 15.6
20260507224309 52 104 0.0 3.0 0.00 0.00 0.00 73 15.8
20260507223309 52 101 0.0 1.0 0.00 0.00 0.00 72 15.7
20260507222309 52 113 0.0 1.0 0.00 0.00 0.00 72 15.6
20260507221309 52 109 0.0 1.0 0.00 0.00 0.00 70 15.5
20260507220309 52 115 0.0 0.0 0.00 0.00 0.00 70 15.5
20260507215309 52 96 0.0 1.0 0.00 0.00 0.00 69 15.6
20260507214309 53 105 0.0 0.0 0.00 0.00 0.00 68 15.6
20260507213310 53 121 0.0 1.0 0.00 0.00 0.00 67 15.6
20260507212309 53 117 0.0 1.0 0.00 0.00 0.00 66 15.5
20260507211309 53 113 0.0 0.0 0.00 0.00 0.00 65 15.5
20260507205309 54 85 0.0 0.0 0.00 0.00 0.00 64 15.2
20260507204309 54 69 0.0 0.0 0.00 0.00 0.00 64 15.3
20260507203309 55 41 0.0 0.0 0.00 0.00 0.00 64 15.3
20260507202310 55 44 0.0 0.0 0.00 0.00 0.00 63 15.2
20260507195309 56 42 0.0 0.0 0.00 0.00 0.00 62 15.0
20260507193309 57 46 0.0 0.0 0.00 0.00 0.00 62 14.9
20260507191309 57 26 0.0 0.0 0.00 0.00 0.00 61 14.8
20260507185309 58 74 0.0 0.0 0.00 0.00 0.00 61 14.7
20260507184309 58 29 0.0 1.0 0.00 0.00 0.00 60 14.7
20260507183309 58 44 0.0 1.0 0.00 0.00 0.00 61 14.6
20260507182309 58 60 0.0 1.0 0.00 0.00 0.00 60 14.7
20260507173309 59 62 0.0 1.0 0.00 0.00 0.00 58 14.6
20260507172309 59 63 0.0 0.0 0.00 0.00 0.00 58 14.5
20260507171309 59 46 0.0 1.0 0.00 0.00 0.00 57 14.6
20260507165309 59 51 0.0 1.0 0.00 0.00 0.00 57 14.5
20260507163309 59 74 0.0 1.0 0.00 0.00 0.00 57 14.5
20260507162309 59 348 0.0 2.0 0.00 0.00 0.00 57 14.4
20260507161309 59 58 0.0 4.0 0.00 0.00 0.00 56 14.5
20260507155309 60 55 0.0 1.0 0.00 0.00 0.00 56 14.4
20260507154309 60 75 0.0 6.0 0.00 0.00 0.00 55 14.4
20260507153309 61 69 0.0 1.0 0.00 0.00 0.00 54 14.4
20260507152309 61 78 0.0 2.0 0.00 0.00 0.00 51 14.4
20260507145310 62 125 0.0 0.0 0.00 0.00 0.00 52 14.2
20260507144309 62 140 0.0 3.0 0.00 0.00 0.00 53 14.2
20260507143309 62 132 0.0 2.0 0.00 0.00 0.00 51 14.3
20260507142309 62 134 0.0 3.0 0.00 0.00 0.00 51 14.3
20260507141310 62 118 0.0 1.0 0.00 0.00 0.00 51 14.3
20260507135309 61 140 1.0 7.0 0.00 0.00 0.00 52 14.4
20260507134309 61 95 3.0 9.0 0.00 0.00 0.00 51 14.5
20260507133309 62 42 0.0 3.0 0.00 0.00 0.00 49 14.5
20260507132309 62 61 0.0 6.0 0.00 0.00 0.00 48 14.3
20260507131309 62 96 0.0 5.0 0.00 0.00 0.00 48 14.3
20260507125310 63 48 2.0 10.0 0.00 0.00 0.00 46 14.4
20260507124309 65 74 3.0 10.0 0.00 0.00 0.00 44 14.2
20260507123309 66 84 0.0 10.0 0.00 0.00 0.00 44 14.2
20260507122309 65 302 1.0 8.0 0.00 0.00 0.00 44 14.3
20260507121309 63 313 0.0 5.0 0.00 0.00 0.00 50 14.2
20260507115309 61 32 0.0 4.0 0.00 0.00 0.00 50 14.3
20260507114309 61 31 0.0 3.0 0.00 0.00 0.00 50 14.1
20260507113309 60 143 1.0 6.0 0.00 0.00 0.00 53 14.1
20260507112309 60 57 1.0 7.0 0.00 0.00 0.00 52 14.3
20260507111309 61 52 0.0 2.0 0.00 0.00 0.00 51 14.4
20260507105309 63 344 1.0 9.0 0.00 0.00 0.00 49 14.4
20260507104309 63 330 3.0 9.0 0.00 0.00 0.00 50 14.2
20260507103309 62 94 4.0 11.0 0.00 0.00 0.00 48 14.3
20260507102309 63 20 1.0 10.0 0.00 0.00 0.00 50 14.1
20260507101309 63 95 0.0 5.0 0.00 0.00 0.00 51 14.3
20260507093309 61 74 3.0 9.0 0.00 0.00 0.00 52 14.1
20260507092309 61 81 0.0 9.0 0.00 0.00 0.00 53 14.1
20260507091309 60 58 1.0 5.0 0.00 0.00 0.00 54 14.0
20260507085309 60 91 4.0 8.0 0.00 0.00 0.00 54 14.0
20260507084309 60 81 1.0 6.0 0.00 0.00 0.00 55 13.9
20260507083309 60 45 0.0 4.0 0.00 0.00 0.00 56 13.9
20260507082309 60 40 0.0 1.0 0.00 0.00 0.00 57 14.1
20260507081313 59 69 0.0 5.0 0.00 0.00 0.00 58 14.0
20260507075310 57 69 0.0 3.0 0.00 0.00 0.00 58 13.6
20260507073309 54 36 2.0 6.0 0.00 0.00 0.00 61 13.6
20260507072309 52 355 1.0 7.0 0.00 0.00 0.00 65 13.5
20260507071309 51 103 0.0 4.0 0.00 0.00 0.00 66 13.5
20260507065311 50 79 0.0 6.0 0.00 0.00 0.00 69 13.5
20260507064309 49 5 1.0 9.0 0.00 0.00 0.00 70 13.5
20260507063309 49 74 1.0 5.0 0.00 0.00 0.00 72 13.4
20260507061309 47 355 0.0 1.0 0.00 0.00 0.00 78 13.2